Theta_e
350 352 355 359 359 360 360 359 359 359 358 357 357 356 356 355 355 355 355 355 355 355 354 354 354 353 353 353 353 353 352 352 351 351 351 350 349 348 346 347 346 346 345 344 344 342 343 343 344 344 346 346 347 348 347 347 348 348 348 349 349 349 348 348 349 349 348 348 348 349 350 350 350 350 349 348 348 349 348 348 346 343 344 347 348
349 353 356 358 358 359 360 359 359 358 357 357 356 356 356 355 355 355 355 355 355 355 355 354 353 353 353 353 353 352 352 351 351 350 350 350 348 347 347 347 346 346 346 346 345 344 343 344 344 344 345 345 346 347 347 348 348 348 349 348 348 348 347 346 348 348 349 348 348 349 349 349 349 348 348 349 348 348 347 347 348 344 343 346 346
352 354 356 357 359 359 359 359 358 357 357 357 357 356 356 356 356 355 355 355 355 355 354 354 353 353 353 353 352 352 351 351 351 351 349 347 347 347 347 347 346 345 345 345 345 345 344 345 344 344 345 345 345 346 347 348 347 347 347 348 347 349 349 347 348 348 348 348 348 348 348 348 347 347 349 348 348 348 347 347 347 346 343 346 345
351 353 356 358 359 358 358 358 358 358 357 357 356 356 356 355 355 355 355 355 355 354 354 353 353 353 353 353 352 352 351 351 351 350 348 347 347 347 348 347 345 345 345 344 344 344 345 344 345 344 344 345 344 345 347 348 348 347 347 347 348 347 349 349 349 349 348 348 347 346 345 342 343 346 346 346 347 347 346 346 345 346 345 345 345
351 353 355 356 357 358 358 357 357 358 357 357 356 356 356 355 356 355 355 355 355 354 354 354 353 353 353 352 352 352 351 351 351 350 348 348 347 347 347 346 345 345 344 344 345 345 345 345 344 343 343 344 344 345 345 346 346 345 345 346 348 348 348 348 347 346 347 347 346 345 341 342 342 343 345 346 347 346 345 346 345 345 345 344 344
350 352 354 355 356 357 357 357 357 358 357 356 356 356 356 356 355 355 355 355 354 354 354 353 353 353 352 352 352 351 351 351 350 349 350 348 349 347 347 346 345 345 345 345 346 346 347 346 344 344 343 343 343 344 344 344 343 343 343 344 344 345 346 346 347 346 346 347 346 341 340 340 341 342 346 347 346 345 345 344 344 343 343 343 343
349 350 353 354 356 356 356 357 358 357 357 356 356 355 355 355 355 355 355 355 354 354 353 353 353 353 352 352 351 351 351 351 350 348 349 350 350 348 347 345 345 345 345 346 348 348 348 348 347 346 344 344 343 343 343 342 342 342 342 343 343 343 344 343 344 345 346 344 340 339 339 340 341 342 346 346 346 345 344 344 343 343 342 342 342
349 350 351 354 355 356 356 357 357 357 356 356 356 355 355 355 355 355 355 354 354 353 353 353 353 352 352 351 350 350 350 350 349 347 349 351 352 351 348 346 345 346 346 348 349 349 349 348 348 348 344 343 342 342 342 342 342 342 342 343 343 343 345 346 345 345 342 342 342 337 337 339 340 341 345 344 344 343 343 343 342 342 342 341 341
347 348 350 353 355 357 357 356 356 357 356 356 356 355 355 355 355 355 355 354 354 353 353 353 352 352 351 351 351 350 350 350 348 348 350 352 351 350 349 346 347 347 348 348 348 348 348 348 348 348 347 343 341 340 341 341 341 342 342 343 344 343 344 344 345 346 343 339 339 336 337 338 337 338 343 344 343 341 340 339 340 339 339 340 340
345 347 351 353 354 357 356 356 356 356 356 356 355 355 355 355 354 355 355 354 354 353 353 352 352 351 351 350 350 350 350 349 349 348 349 351 351 350 348 347 348 349 349 349 348 348 347 347 347 347 347 346 344 341 340 341 342 342 341 341 342 343 342 344 345 342 339 336 337 337 339 342 337 338 341 343 343 342 339 338 337 337 337 338 338
344 348 351 353 355 355 355 355 356 356 356 355 355 354 354 354 355 354 354 354 354 353 353 352 351 351 351 350 350 350 350 349 349 348 349 350 350 350 348 349 349 349 350 349 349 349 349 348 347 346 345 344 344 343 342 341 343 343 342 342 342 343 344 346 342 334 333 332 332 336 340 342 336 337 342 342 342 340 339 338 338 337 337 337 337
345 346 349 353 356 354 355 355 356 355 355 355 354 354 354 355 354 354 354 354 353 353 353 352 352 351 350 350 350 350 350 350 350 349 349 350 349 350 351 351 350 350 349 349 348 348 347 346 346 346 345 345 344 343 344 345 344 343 343 342 343 343 343 345 340 333 331 332 332 331 331 333 334 337 341 340 340 340 339 337 337 337 336 336 336
344 346 350 353 353 354 355 355 355 355 355 354 354 354 354 354 354 354 353 353 353 353 352 352 352 351 351 351 351 351 350 350 351 350 349 350 350 352 351 351 350 349 349 348 348 347 346 346 346 346 346 346 345 344 344 345 345 343 342 343 344 344 343 344 336 333 332 332 332 332 332 332 335 340 339 338 339 337 336 336 336 337 337 336 337
345 348 350 351 353 357 354 354 354 354 354 353 353 353 354 354 354 353 353 352 353 352 352 352 351 351 351 352 352 352 352 352 351 349 348 350 351 352 351 351 350 349 348 347 347 347 346 347 346 346 346 346 345 344 344 345 344 344 343 343 344 342 344 340 339 333 333 333 334 334 334 336 336 339 338 338 338 337 336 337 336 336 335 337 336
346 347 349 351 352 353 355 353 353 353 353 352 352 353 353 353 352 352 352 353 353 352 352 352 351 351 351 351 351 350 351 351 351 349 350 351 351 350 350 350 349 347 347 347 346 346 346 346 345 345 346 345 345 344 344 344 345 342 344 343 344 345 344 341 333 332 332 332 331 331 330 332 340 338 339 339 337 337 336 336 335 335 336 337 338
346 346 349 350 351 351 351 354 354 353 352 353 352 353 352 352 352 352 352 352 351 351 351 351 351 351 350 350 351 351 351 351 352 352 352 351 350 350 350 349 348 347 347 347 346 346 347 346 346 345 345 345 345 345 344 344 345 345 344 344 344 345 347 347 329 326 326 328 330 332 331 332 339 338 337 337 336 337 336 335 335 334 334 336 336
345 346 347 348 349 349 349 350 352 354 353 352 352 352 352 351 351 351 351 351 351 352 351 351 350 350 350 350 350 350 351 351 351 351 351 350 350 349 349 348 348 347 347 346 346 346 346 346 346 345 345 344 344 344 345 345 345 345 344 345 345 346 345 337 331 330 330 331 331 330 330 333 336 337 337 336 336 335 335 335 335 335 334 334 335
344 345 345 346 347 347 348 348 349 350 350 351 352 352 352 351 350 351 351 351 351 351 350 350 349 349 349 350 350 350 350 350 351 350 350 350 349 349 348 348 347 347 346 346 346 346 346 346 345 345 345 344 344 344 344 344 344 345 345 345 346 346 344 338 331 332 332 335 331 333 333 337 337 336 335 335 335 335 335 336 336 336 336 336 335
342 344 345 344 344 345 346 347 347 347 347 347 348 350 351 351 351 351 351 350 350 350 350 349 349 350 350 349 349 350 350 350 350 349 349 349 349 349 348 347 347 346 346 346 345 346 346 346 345 345 345 344 345 344 342 345 344 344 344 346 347 345 339 336 331 331 331 330 330 329 329 339 339 336 336 336 336 338 338 337 336 336 336 335 335
342 342 341 342 344 344 345 345 345 346 345 346 347 347 349 351 351 350 350 350 350 349 349 349 349 349 349 349 349 348 349 348 350 348 349 349 348 347 347 347 346 346 345 345 346 346 346 346 345 345 345 344 344 345 345 345 344 345 345 345 346 343 332 330 331 331 330 331 332 330 337 337 336 336 336 334 335 335 335 334 334 334 334 334 334
341 342 341 341 343 344 343 343 344 344 345 345 346 347 349 351 351 351 351 351 350 350 349 349 349 349 348 349 347 345 345 346 346 346 348 347 347 348 347 347 346 345 345 345 346 346 346 346 345 345 344 345 344 344 344 344 344 345 345 346 345 336 332 331 331 332 331 332 333 332 338 336 336 336 336 335 334 334 334 334 334 335 334 333 333
334 337 343 343 343 343 342 343 343 344 345 345 346 347 348 349 348 348 348 349 350 350 348 347 348 346 348 346 343 346 343 343 344 348 345 346 346 347 346 346 345 345 345 345 345 345 344 345 346 345 345 344 344 336 340 343 344 346 346 346 338 337 333 331 330 330 331 330 333 336 337 335 336 335 336 335 336 335 334 333 333 333 333 332 332
335 337 337 340 343 343 343 341 340 341 344 344 346 346 346 346 347 347 347 348 349 348 345 346 344 344 344 343 343 342 342 343 343 345 344 346 345 346 345 345 345 345 345 344 345 344 344 344 345 345 345 345 341 338 337 335 336 345 346 338 338 336 332 330 329 329 329 331 330 335 335 336 335 335 335 335 334 333 333 333 334 334 333 332 332
334 336 337 340 342 341 340 340 339 340 342 343 344 344 344 345 345 346 345 346 345 346 344 343 343 343 342 341 340 342 341 341 347 346 346 343 344 345 345 345 344 344 344 343 344 344 343 342 341 345 345 344 339 339 338 337 335 336 337 336 338 328 328 328 329 329 329 333 332 336 335 335 336 335 334 334 334 333 333 332 332 331 331 331 331
335 336 337 338 339 340 339 340 340 340 341 343 343 342 343 344 344 345 344 343 341 340 341 341 341 341 340 340 340 342 341 341 340 341 340 340 339 339 341 339 338 337 343 334 334 337 339 336 334 337 332 339 340 338 339 337 338 340 336 334 333 329 328 328 328 329 329 331 334 337 336 335 335 335 335 335 334 333 333 333 332 331 331 331 332
337 334 334 338 338 339 339 340 339 339 341 342 341 343 343 341 342 343 342 340 339 338 339 340 339 338 338 339 341 340 340 339 339 339 339 338 338 337 337 337 335 335 339 334 333 331 330 331 333 333 331 331 334 337 340 339 340 338 335 334 333 333 331 330 330 331 330 331 333 335 336 335 335 335 335 335 334 333 332 332 332 332 331 331 331
334 333 336 337 338 339 339 340 338 338 340 341 340 341 338 340 341 342 340 338 338 338 338 339 338 337 338 339 339 339 338 338 338 338 338 338 337 336 335 335 334 333 337 334 332 331 331 330 328 329 328 328 332 336 339 339 336 337 335 335 335 335 334 331 331 331 331 332 336 337 337 336 336 335 335 335 334 333 333 333 332 331 331 331 331
334 335 336 337 338 338 339 339 338 337 338 339 338 338 336 339 341 345 341 340 339 338 338 338 338 337 337 339 341 339 338 337 337 337 337 336 336 335 334 333 332 333 335 334 331 331 330 330 329 329 328 330 332 336 338 337 336 334 334 333 334 334 334 333 332 332 332 333 335 337 337 337 337 335 334 334 334 334 333 333 333 333 332 332 332
334 335 336 336 337 338 338 338 337 336 336 337 336 336 336 339 341 341 340 343 339 338 338 338 337 337 337 339 340 338 338 337 337 337 337 335 336 335 334 331 332 331 332 332 331 330 329 329 329 329 329 329 331 335 338 334 332 332 331 333 333 334 334 334 334 334 334 334 335 336 337 336 337 336 334 334 334 334 333 333 333 333 332 332 331
335 336 336 336 337 338 337 337 336 336 336 336 334 335 336 338 339 340 341 343 339 339 338 337 337 337 337 339 340 338 338 337 337 337 336 336 337 338 336 333 332 331 332 331 331 330 329 329 330 330 329 329 330 336 336 331 331 332 331 331 334 334 333 334 335 334 335 336 336 336 337 338 338 337 336 335 334 334 333 333 333 331 331 331 331
336 335 335 336 337 337 336 337 337 338 337 337 334 335 337 337 338 340 341 340 339 340 338 338 338 337 338 339 340 340 339 338 337 337 337 337 337 337 336 335 335 333 333 335 335 335 333 331 332 329 334 332 332 335 333 331 330 333 332 333 333 333 331 333 332 335 336 336 335 335 335 336 337 338 338 338 335 334 334 333 333 333 333 333 333
335 334 335 336 336 336 336 337 337 338 338 337 336 336 336 337 338 340 340 340 340 339 338 338 338 338 339 339 339 340 340 337 337 336 335 334 336 336 335 336 335 335 336 337 337 336 334 334 337 339 335 335 334 335 333 331 330 332 334 333 334 333 332 332 333 333 334 335 335 335 334 335 338 336 336 336 335 334 334 335 334 334 334 333 332
334 335 334 335 335 335 335 336 338 338 337 336 337 337 336 338 338 339 339 340 339 338 337 337 336 337 338 339 339 340 339 335 334 335 335 335 335 337 335 336 335 338 337 337 338 338 337 336 337 336 333 332 333 335 334 331 330 330 333 335 333 333 333 331 331 331 332 332 333 335 334 334 335 337 336 334 336 337 335 334 334 334 334 333 333
335 335 334 333 335 336 337 338 339 338 337 338 338 336 336 338 341 340 340 339 338 337 336 336 337 337 338 339 339 340 338 335 334 334 334 333 333 334 337 336 337 337 337 336 337 336 336 334 333 334 336 332 333 333 333 330 328 330 332 332 330 330 333 333 332 332 331 332 332 332 333 332 331 331 333 335 337 336 337 337 336 336 335 334 334
335 334 333 334 335 336 338 338 339 338 339 337 338 337 337 339 339 339 339 338 339 337 336 336 337 337 338 338 338 338 337 336 336 334 332 334 333 335 336 335 337 337 338 336 338 335 338 336 333 332 332 331 331 333 332 330 329 329 329 330 329 331 330 330 332 332 332 330 330 330 332 332 331 331 333 332 340 339 338 338 338 337 337 337 336
335 334 334 334 335 337 338 338 340 339 336 336 336 337 337 338 338 340 338 338 338 338 338 338 338 339 339 337 337 337 335 336 335 335 333 333 332 334 336 338 337 337 337 337 337 336 336 335 334 333 331 329 330 330 332 331 330 330 330 331 330 329 329 328 330 331 331 331 331 331 330 332 333 331 335 331 331 336 338 338 338 337 337 337 337
336 334 334 334 335 338 339 339 338 337 335 336 336 336 336 337 337 337 338 338 339 339 340 339 339 338 337 336 335 335 334 335 334 335 335 335 334 333 334 338 336 335 336 336 336 335 335 334 334 334 332 329 330 330 330 329 329 330 330 331 329 328 327 327 330 330 330 328 329 330 331 332 335 338 330 330 331 332 338 339 339 338 338 337 337
336 335 334 335 336 338 339 339 339 337 337 337 337 336 336 337 338 338 338 337 338 339 339 339 337 338 337 335 335 335 334 333 334 335 333 335 335 333 333 337 336 338 336 335 333 335 335 333 333 333 332 331 330 329 329 330 330 330 329 329 328 328 329 328 329 331 329 329 329 329 330 331 334 332 331 331 331 332 332 336 338 337 336 336 337
335 334 334 334 337 337 337 339 336 336 334 332 333 335 335 336 337 337 336 336 336 336 336 337 337 337 336 335 335 335 335 334 333 335 333 334 332 333 333 335 336 336 334 333 333 334 334 334 333 333 333 332 330 330 331 331 330 329 330 329 328 328 328 327 327 328 329 329 330 332 331 329 332 333 332 332 331 331 331 329 329 329 331 336 335
335 335 334 335 337 337 336 337 336 334 333 332 332 333 333 334 332 333 332 333 333 334 333 335 335 335 336 336 336 335 336 336 333 334 334 332 331 333 333 335 336 336 334 332 330 331 333 333 332 331 331 333 332 331 331 330 328 327 328 329 330 329 328 327 326 326 327 328 329 329 328 328 329 331 332 330 331 331 331 331 334 330 330 333 336
335 335 334 335 336 336 335 335 335 333 331 331 332 332 331 330 332 330 330 331 331 333 334 335 334 335 336 336 336 338 336 338 336 335 333 335 332 334 332 334 337 335 333 332 332 333 333 333 332 331 330 329 328 330 331 330 327 324 325 326 326 329 329 326 324 326 328 327 327 327 328 329 329 330 329 330 331 331 331 332 331 330 328 328 332
334 334 334 335 335 336 336 336 334 331 331 331 331 332 333 332 332 331 331 331 331 332 334 333 334 336 335 335 335 336 337 337 337 335 336 335 334 332 333 333 334 335 334 334 333 334 333 332 331 329 330 329 327 330 330 328 320 320 320 321 322 324 327 327 326 328 328 327 327 327 327 328 328 329 329 328 327 329 329 330 330 329 329 329 329
334 334 335 335 336 335 336 335 330 330 331 331 331 332 334 334 333 332 331 330 333 334 336 334 336 335 335 336 335 335 336 336 337 336 336 336 334 334 335 334 335 335 333 332 332 331 331 331 330 328 327 328 329 331 329 326 322 322 323 321 318 317 320 322 325 327 326 326 325 327 327 328 328 328 329 327 327 328 330 329 330 328 328 328 330
333 334 335 334 335 334 334 331 330 331 329 330 332 332 332 334 335 334 334 332 330 334 336 335 336 335 334 336 335 335 335 335 336 334 334 333 332 333 336 334 335 335 334 332 331 331 330 330 330 329 328 327 326 326 331 329 327 323 316 314 316 316 314 316 320 323 326 326 327 328 327 327 328 328 328 327 328 328 328 330 330 329 328 329 329
332 334 334 333 334 333 334 331 329 329 329 331 331 331 332 333 333 333 333 332 331 332 333 331 333 335 334 333 335 336 334 334 334 332 332 331 333 335 334 334 335 335 334 332 331 331 331 331 330 329 328 326 324 323 326 328 326 324 320 316 313 311 311 315 319 320 323 323 326 326 326 326 327 327 326 325 326 327 328 329 329 329 329 330 329
331 334 334 333 334 334 333 332 330 330 330 331 331 329 330 330 330 329 327 326 326 326 327 329 331 332 332 333 335 337 333 333 333 332 333 335 336 336 335 334 334 334 333 332 332 332 331 331 331 330 329 328 327 325 324 327 327 328 326 321 317 312 314 317 316 312 321 323 323 324 326 325 326 326 326 326 326 327 328 328 328 329 330 328 326
326 332 333 334 334 334 333 332 331 331 331 331 331 329 328 329 330 330 328 327 325 325 328 329 331 332 333 332 334 334 336 335 334 334 334 336 335 336 335 335 335 334 335 332 330 331 332 332 332 330 329 328 327 324 325 325 326 327 329 328 327 323 322 318 313 317 314 320 324 322 322 326 326 327 327 327 326 327 328 328 327 328 327 324 321
327 332 333 334 334 334 333 332 332 332 330 332 332 332 329 330 330 329 329 328 326 326 329 330 331 333 333 333 335 333 335 336 334 333 334 336 335 335 335 334 335 334 334 332 331 331 331 331 331 330 330 330 328 326 325 327 324 323 325 325 325 325 323 321 321 319 317 315 318 324 324 322 323 324 326 326 326 326 325 326 326 326 324 322 321
326 331 332 333 334 334 334 333 332 331 331 331 330 330 330 330 330 329 328 330 329 329 331 331 331 333 333 333 334 335 335 335 334 333 334 335 336 335 335 334 334 334 334 333 332 333 332 329 329 330 328 329 330 329 328 326 325 324 323 323 323 323 323 322 323 320 316 315 316 318 318 320 321 323 324 325 325 325 325 325 326 325 323 321 321
324 329 332 333 333 334 333 331 330 330 329 329 329 329 330 330 329 331 330 331 331 331 332 329 329 330 332 333 334 333 332 332 333 333 333 334 334 334 333 334 333 333 333 332 332 331 331 331 330 329 330 329 329 330 328 326 326 326 325 324 322 321 320 320 320 319 318 318 316 317 316 317 316 318 322 323 324 324 324 325 325 324 322 320 318
324 328 331 333 334 330 331 329 329 329 329 328 328 328 329 330 330 331 330 330 330 330 329 329 329 329 330 333 333 332 333 332 332 332 332 333 332 333 332 332 331 333 331 329 329 330 330 332 332 331 331 331 329 328 327 326 327 326 325 324 323 323 320 318 319 318 317 315 316 316 317 318 317 317 321 324 322 320 321 321 320 317 316 317 316
Wind_Speed
5 12 10 16 16 17 17 17 18 17 18 18 18 18 18 19 19 19 20 19 19 19 19 19 19 18 18 18 17 16 16 16 16 17 17 16 16 16 15 16 18 17 17 17 16 15 15 15 16 16 17 16 17 17 17 17 16 16 16 17 18 18 17 17 18 20 19 21 19 19 18 19 18 17 18 19 19 18 18 17 14 10 9 12 17
10 9 9 12 18 17 17 18 17 17 18 18 18 18 18 19 19 19 19 19 19 19 19 19 19 18 18 17 17 16 16 16 16 16 16 15 15 15 16 17 17 17 18 17 17 16 16 16 17 16 16 16 16 16 15 16 15 15 15 15 18 18 17 16 19 20 21 20 20 20 20 19 19 18 18 19 19 19 18 18 17 9 7 16 18
11 10 9 13 18 18 17 18 18 19 17 18 19 17 18 18 18 18 19 19 18 18 18 18 18 18 17 17 16 16 16 16 16 16 15 15 15 15 16 16 16 17 18 18 17 17 15 15 15 15 15 15 15 15 15 13 14 14 14 16 16 17 18 19 19 20 19 19 19 19 20 19 19 19 18 18 19 19 19 18 17 15 11 18 17
13 9 9 13 19 18 18 18 18 19 17 17 17 17 17 17 17 17 18 18 18 17 17 17 16 16 16 16 16 16 16 16 16 15 14 15 15 15 16 16 15 17 17 17 17 17 16 15 15 15 14 14 13 13 13 12 12 12 13 15 14 13 12 11 14 17 18 18 17 13 8 8 12 16 17 18 19 19 18 18 18 18 18 17 18
13 10 9 10 12 16 18 18 18 19 18 17 17 18 18 17 16 16 17 16 16 16 16 15 16 16 16 16 16 16 16 16 15 15 14 14 14 15 15 16 14 15 16 17 17 17 16 15 15 14 14 13 13 10 10 10 11 10 10 10 10 10 11 13 12 13 16 18 17 10 7 8 7 15 16 18 18 17 17 18 18 17 17 18 18
12 10 9 10 9 13 18 18 19 20 19 18 17 18 18 17 16 16 17 17 17 17 16 15 15 14 15 16 16 16 16 15 15 14 12 13 11 14 15 14 14 14 14 16 16 16 16 16 14 13 12 11 9 9 9 9 9 9 10 10 10 9 8 8 8 9 10 11 10 7 7 7 8 9 18 18 18 17 18 18 17 16 16 17 17
12 9 10 9 8 11 17 18 19 19 19 18 17 17 17 17 16 16 18 17 17 17 16 15 13 14 15 14 15 16 15 14 14 13 11 10 11 14 15 14 13 13 14 14 15 15 15 15 15 14 12 10 8 8 8 7 8 9 8 8 8 7 8 7 8 7 8 5 4 6 6 8 7 6 17 17 17 17 17 16 17 16 16 15 16
9 9 10 10 8 13 17 18 19 19 19 18 17 17 17 17 16 17 17 17 16 15 15 14 14 14 14 14 14 14 15 14 13 13 10 10 14 13 13 14 13 13 13 13 13 13 14 14 15 14 12 10 7 7 7 6 8 7 8 9 9 9 9 9 8 5 2 3 3 6 7 8 8 8 14 17 16 16 16 16 16 16 16 16 15
10 10 9 10 10 17 16 17 18 20 18 18 17 17 17 16 17 17 17 16 15 15 15 14 14 13 13 13 13 14 14 14 13 11 10 13 14 12 11 12 12 12 12 11 11 11 12 13 14 13 12 10 7 6 6 6 7 10 10 10 10 10 10 9 9 7 3 1 6 7 7 7 6 7 13 15 16 15 14 12 12 16 16 15 15
10 9 9 8 9 15 15 16 18 19 18 18 17 17 17 17 17 17 17 16 15 15 14 14 14 13 12 13 13 14 14 13 12 11 11 14 13 11 12 11 12 11 11 11 11 11 12 12 12 12 11 10 7 6 6 7 9 10 10 10 9 8 8 6 8 1 4 9 9 10 9 10 6 7 13 14 17 17 15 15 12 12 12 15 15
11 10 9 9 11 14 15 16 17 18 18 18 18 18 18 17 17 16 16 15 15 14 14 13 13 12 12 12 12 12 13 13 12 12 11 13 11 11 12 12 12 11 12 13 12 12 12 12 11 9 8 8 5 4 6 8 9 9 9 8 7 6 7 12 12 7 8 10 9 8 11 14 7 7 13 15 16 16 15 15 16 15 15 16 16
12 11 9 9 15 15 15 16 16 17 18 17 18 18 18 17 17 16 15 15 14 14 12 12 11 11 12 11 12 12 12 12 12 12 12 11 12 13 12 13 12 12 14 12 12 12 12 11 10 9 8 7 5 5 6 8 9 10 10 8 9 11 12 12 5 8 9 10 9 6 7 7 7 10 15 14 16 16 16 16 16 16 16 16 16
12 12 10 9 10 14 15 16 17 17 18 17 17 17 17 17 17 15 14 13 13 13 13 12 10 10 10 10 11 11 12 11 10 11 12 11 13 13 13 13 12 13 13 13 12 12 11 10 9 9 8 7 7 5 6 8 9 9 9 10 10 11 11 11 6 9 9 9 8 7 8 6 7 13 14 14 15 15 15 15 16 16 15 15 15
12 12 11 10 9 17 16 15 16 17 16 16 16 15 15 15 15 14 14 13 13 13 12 11 10 10 10 9 9 10 10 10 9 10 11 11 12 13 14 14 13 13 13 11 11 11 11 10 9 9 9 9 8 6 7 8 8 7 8 9 8 8 9 6 9 9 10 10 8 9 7 6 7 13 14 15 15 14 15 15 15 16 16 15 14
14 13 12 10 9 11 19 16 15 16 15 14 13 13 14 14 14 14 13 13 13 12 12 11 10 9 9 9 10 10 10 10 10 11 10 12 12 13 14 14 13 13 12 11 11 11 10 9 9 8 9 8 7 7 7 7 6 6 9 9 9 10 9 4 7 9 10 9 8 9 7 5 10 11 15 14 14 15 15 14 14 15 16 16 15
15 13 13 11 10 9 10 17 16 15 14 13 13 13 13 14 14 13 12 12 12 12 11 11 10 9 9 10 10 11 11 11 10 12 12 13 13 13 13 14 13 13 11 10 10 10 10 10 10 8 7 7 7 7 6 5 6 8 9 9 9 9 9 6 8 9 9 8 7 7 6 5 11 13 13 14 14 14 14 14 14 13 14 15 14
14 14 13 12 10 9 8 9 13 16 14 13 13 13 13 13 13 12 11 12 12 11 11 11 11 10 10 11 10 10 12 11 13 13 13 13 13 13 12 13 12 12 11 10 10 10 10 10 9 8 6 6 6 5 5 6 7 7 7 7 9 11 13 14 8 7 8 8 7 5 5 6 11 12 14 14 14 14 14 14 14 13 13 14 14
15 14 14 12 10 9 9 9 10 10 9 12 13 13 12 12 11 11 11 12 12 11 11 11 11 11 11 11 10 10 12 13 13 14 14 13 12 13 12 13 12 11 10 10 9 10 10 9 8 7 6 5 4 4 4 6 7 8 8 8 10 13 16 15 9 9 9 9 7 6 5 7 9 12 13 14 13 14 14 14 14 13 13 13 13
15 15 14 13 10 10 9 8 9 9 8 7 7 10 13 12 10 11 11 12 11 11 12 11 11 10 11 11 12 12 12 14 14 14 14 13 12 11 12 13 11 11 10 9 9 9 9 8 8 6 5 4 3 3 3 5 7 8 9 11 13 12 17 10 9 9 8 6 5 5 4 7 10 12 13 13 14 14 13 13 13 13 13 13 13
15 14 14 11 11 10 8 7 7 8 7 7 7 7 12 13 11 13 13 12 12 12 11 11 12 11 12 12 12 10 11 10 15 12 15 14 12 10 13 11 11 10 9 9 9 9 9 8 7 5 4 3 2 3 5 6 7 8 9 9 10 9 7 8 11 9 7 6 5 4 8 12 12 13 12 13 12 12 12 12 12 12 13 13 13
8 10 13 12 11 10 8 6 7 8 8 8 7 8 10 14 13 14 15 14 12 12 12 13 11 11 10 10 9 6 5 6 7 7 12 8 10 13 13 12 11 10 9 9 10 9 9 8 7 5 2 2 3 4 5 6 7 7 7 7 9 5 7 8 9 8 6 6 6 6 11 12 12 13 12 12 12 12 13 12 12 12 13 13 13
7 3 5 8 8 6 6 6 6 7 8 7 7 7 8 11 8 9 8 9 10 11 9 7 9 5 10 7 5 5 5 5 6 8 6 7 10 13 12 11 11 10 8 8 10 9 9 8 7 6 3 1 1 1 2 4 6 6 6 7 5 4 6 7 8 8 7 5 5 7 12 12 12 12 12 12 12 12 11 11 12 13 13 13 13
8 6 6 10 9 9 6 7 7 8 10 9 7 7 9 7 9 8 7 9 9 8 6 7 5 5 5 4 4 5 5 4 5 6 5 10 9 13 12 11 10 9 7 6 8 10 8 7 6 6 4 2 0 1 2 2 3 6 6 5 5 6 6 8 8 7 6 5 5 11 10 11 11 11 11 11 11 11 11 12 12 12 12 12 13
5 8 10 11 12 15 21 20 19 15 11 10 9 8 8 9 7 7 6 6 6 7 6 6 6 6 5 4 4 4 4 5 9 13 11 6 6 11 12 11 10 8 6 4 5 8 8 7 5 6 4 2 1 3 3 2 2 2 6 6 5 6 7 8 8 7 6 6 6 12 10 11 12 12 11 11 11 11 11 11 12 12 13 13 12
4 5 6 10 11 8 5 1 3 10 14 13 12 10 9 9 8 7 6 5 6 6 6 6 6 7 6 5 4 5 5 5 4 5 5 5 4 4 5 4 3 3 5 2 2 3 5 3 2 2 2 3 3 3 3 1 0 6 6 5 6 5 6 7 7 7 7 6 6 10 11 10 9 11 12 11 11 10 11 11 11 12 12 12 12
11 6 11 11 10 9 10 10 9 7 8 11 12 12 11 9 9 8 7 6 6 4 5 5 6 6 6 6 5 6 6 5 5 5 5 5 5 4 5 4 4 3 3 2 3 3 3 3 4 3 3 2 3 4 2 2 4 6 5 4 6 6 5 6 7 7 6 7 7 10 9 9 9 10 11 11 10 10 11 11 11 11 11 10 12
13 12 9 9 9 9 10 11 11 9 9 9 9 9 9 9 9 8 9 8 6 6 6 5 6 6 6 6 6 6 6 6 6 6 6 5 5 5 5 5 4 4 4 3 3 3 4 2 4 5 4 3 5 4 3 5 5 5 4 5 6 6 5 5 5 6 5 6 7 10 8 8 9 10 10 11 11 10 10 10 10 10 10 11 11
14 14 11 10 11 12 12 11 11 10 8 8 9 9 8 8 9 10 9 9 8 7 7 6 7 6 7 6 6 6 7 7 6 6 6 5 5 6 5 5 5 5 4 3 3 3 3 3 2 3 3 4 3 3 4 7 5 2 4 5 5 5 6 6 4 5 5 6 6 8 9 7 7 9 10 10 10 10 10 10 9 10 10 10 11
12 12 10 10 10 11 12 11 10 9 6 6 8 6 6 7 8 9 9 9 7 7 7 7 7 6 6 7 6 6 6 6 6 5 5 4 4 5 5 5 5 5 5 5 4 4 5 3 4 4 4 2 0 4 7 6 3 3 2 5 7 7 7 4 4 5 5 5 6 7 9 9 7 8 8 9 9 10 9 9 10 10 10 10 10
10 11 10 8 7 9 11 11 10 8 7 5 3 5 5 7 7 9 9 9 7 7 8 7 6 7 6 6 6 6 6 6 6 5 5 4 4 6 6 5 5 5 5 5 5 5 5 5 5 6 3 1 0 6 7 4 3 3 1 5 7 6 6 1 4 5 6 7 5 6 10 7 6 6 8 8 9 9 9 9 9 9 10 9 9
7 9 8 7 7 8 8 7 7 7 7 7 3 3 4 5 6 7 7 7 7 8 7 7 7 7 7 7 6 5 6 6 6 5 5 2 3 3 4 4 4 6 7 5 6 6 6 6 6 3 4 5 4 6 7 4 3 3 4 8 7 8 1 3 1 4 5 6 5 4 6 9 6 5 5 7 9 9 9 9 9 9 9 9 9
8 8 7 7 8 8 8 7 6 7 7 6 5 4 5 6 6 6 6 6 7 7 7 7 7 6 6 7 6 6 6 6 5 5 3 2 1 3 3 3 3 4 4 3 3 4 4 4 4 5 4 5 6 6 6 6 4 5 7 7 7 6 4 1 3 2 3 5 4 4 4 4 6 8 8 8 7 8 8 9 9 9 9 9 9
5 7 8 9 9 8 8 6 7 7 7 7 6 5 5 5 5 5 4 5 6 6 6 7 7 6 5 5 5 6 5 6 5 5 3 2 1 0 3 3 3 4 4 4 2 3 2 3 5 5 6 6 7 7 6 4 4 5 7 8 6 3 1 2 2 2 3 4 4 4 4 3 3 6 8 8 6 6 8 9 10 9 9 9 9
8 6 8 9 7 6 6 6 7 7 7 7 6 6 6 5 4 4 4 4 4 5 5 6 6 6 5 4 6 7 6 5 6 4 3 2 1 0 4 3 3 4 4 4 4 3 2 3 4 6 5 6 7 7 7 5 3 6 7 8 6 1 2 4 3 3 3 2 2 3 3 3 4 3 3 7 6 3 3 9 9 9 9 8 8
8 8 9 9 8 7 7 6 8 6 8 7 7 7 7 6 5 5 5 4 4 4 4 5 6 6 5 5 6 6 6 6 5 5 4 3 1 1 1 3 4 3 4 4 4 3 4 5 6 7 5 5 6 6 7 5 4 6 7 7 5 3 0 4 3 3 3 2 3 3 3 5 5 3 3 3 5 8 10 9 8 7 5 6 9
10 8 8 8 9 7 7 7 8 7 7 7 7 8 9 7 6 7 6 5 5 5 5 5 6 6 6 6 6 6 6 6 6 5 4 3 3 1 0 2 4 4 4 3 3 4 4 5 5 7 6 5 7 7 7 7 4 5 6 7 4 2 1 3 3 4 3 3 3 3 2 3 4 4 4 4 4 5 8 6 5 6 6 6 7
10 9 9 8 8 8 9 8 9 9 7 7 7 8 8 9 8 8 8 7 6 5 5 5 5 6 6 7 7 6 6 5 5 5 5 4 2 1 1 1 4 4 3 4 4 5 3 5 5 5 6 5 6 7 8 7 5 4 4 7 4 3 2 3 4 3 3 3 3 3 2 2 4 7 4 4 3 3 5 6 6 5 4 4 5
10 10 9 8 7 8 8 8 8 5 7 6 4 4 6 5 7 7 8 8 6 5 5 6 5 5 5 6 6 6 6 5 5 5 5 3 3 2 0 2 2 4 4 4 4 3 4 5 6 4 6 6 5 6 8 8 6 4 1 6 4 2 2 2 4 5 4 4 3 3 2 2 4 5 5 4 3 4 3 4 6 5 5 4 2
10 11 9 6 7 7 5 8 6 5 4 5 6 5 6 2 1 4 6 6 5 5 4 5 5 5 5 5 5 5 6 5 5 6 5 3 3 1 1 2 2 4 4 2 4 3 3 3 5 5 4 6 6 5 7 8 8 5 3 4 4 4 2 2 2 4 5 5 5 5 3 3 4 4 4 4 4 3 3 2 2 2 3 6 4
11 11 11 8 8 7 4 7 7 4 6 7 5 4 2 7 7 1 5 5 5 5 2 4 4 5 5 6 5 5 5 5 5 5 4 4 3 3 1 4 3 5 6 4 4 5 5 4 5 6 6 5 5 6 8 8 7 6 3 3 4 5 4 3 2 2 2 3 4 4 4 3 3 4 3 3 4 3 3 3 3 3 3 4 5
11 11 11 10 11 9 9 9 6 4 4 6 7 7 6 7 7 6 6 5 5 5 3 3 3 4 5 6 5 5 5 4 6 5 3 4 4 3 1 7 4 4 4 5 4 4 4 5 5 5 6 6 4 5 6 9 9 6 5 5 5 3 4 3 3 2 3 2 2 4 4 4 3 4 3 3 3 3 3 4 4 4 3 3 4
11 12 12 12 10 10 10 9 7 4 3 6 7 5 1 1 2 7 7 5 4 6 6 6 5 5 6 5 5 3 4 4 5 5 3 3 2 4 7 6 5 5 5 4 4 3 4 4 5 5 3 6 4 5 7 6 3 6 6 4 3 4 3 3 3 2 3 2 3 3 3 4 4 4 3 3 3 3 3 4 4 4 3 2 3
14 15 14 14 13 11 10 8 7 3 5 7 2 1 4 3 4 1 7 7 4 4 5 5 5 6 6 5 5 3 3 5 4 4 2 2 1 7 8 5 5 6 6 5 4 4 4 4 4 6 5 2 4 4 6 2 5 4 5 5 3 3 1 2 3 3 2 1 2 3 3 4 4 4 4 3 3 4 3 3 3 3 3 3 4
12 10 11 12 8 7 8 8 7 6 7 4 2 6 6 6 5 2 1 3 4 2 4 5 4 5 6 5 4 4 3 5 5 3 3 5 6 7 5 4 6 6 6 6 5 5 4 4 4 5 6 6 3 2 0 3 6 8 4 2 3 3 3 1 1 1 1 1 1 2 2 3 4 3 4 4 3 4 3 3 3 3 3 4 4
11 11 12 11 9 10 10 10 9 8 8 7 5 6 6 6 5 5 5 5 1 5 7 5 4 4 6 5 6 5 5 4 8 8 7 8 7 6 5 5 5 6 6 6 5 5 5 5 5 5 7 6 5 2 1 3 7 4 6 4 1 1 2 2 3 1 2 2 2 3 2 3 3 4 4 3 2 3 3 3 4 3 3 4 4
10 9 10 12 12 11 11 11 9 8 7 8 9 8 3 6 7 8 6 4 2 4 4 7 6 6 7 5 4 5 5 5 5 7 7 6 7 6 5 5 5 6 6 6 5 5 4 4 5 5 5 5 6 5 2 0 2 3 3 4 5 5 7 6 3 3 0 1 1 3 3 2 1 2 3 3 3 2 3 5 4 4 5 4 3
6 8 11 11 11 11 13 12 9 8 9 9 10 11 4 3 1 5 4 2 5 6 6 3 5 4 3 7 6 5 6 6 5 4 5 4 5 5 5 5 5 5 4 5 4 5 6 4 5 5 5 6 6 5 6 4 1 0 2 1 0 2 8 9 3 4 3 0 0 2 1 2 1 1 1 2 2 3 4 5 5 4 4 4 5
9 9 11 12 12 12 13 13 10 9 8 9 11 11 12 12 10 8 5 5 8 7 6 6 5 4 5 6 6 6 5 4 5 3 6 8 5 5 6 6 6 5 5 6 6 5 3 3 4 4 3 7 6 7 6 5 6 2 1 2 2 4 6 2 6 6 6 6 3 2 2 1 1 1 2 1 3 4 5 4 5 4 4 5 5
6 7 10 10 11 11 12 12 11 10 10 11 11 12 12 12 11 10 10 7 7 6 5 5 6 5 5 5 5 6 5 6 6 7 8 6 5 5 5 6 5 5 6 5 4 5 6 6 3 5 4 4 5 6 7 6 5 5 4 1 3 3 2 3 6 3 4 5 3 4 3 1 0 2 4 2 3 4 6 6 6 5 5 5 5
1 1 7 9 10 9 9 12 12 11 12 13 12 12 12 10 10 9 12 8 7 6 6 6 6 5 5 5 5 5 6 4 5 7 7 7 5 5 4 3 5 6 6 6 5 5 7 6 7 4 5 6 3 6 7 6 5 5 5 5 4 3 3 3 2 3 3 2 7 6 6 6 4 4 4 3 5 5 6 6 5 6 5 5 5
3 4 3 6 10 7 6 9 11 12 12 11 10 11 10 9 10 11 12 10 9 9 8 7 6 6 5 6 6 6 8 7 7 6 7 7 6 6 7 9 6 5 5 5 5 6 6 8 6 6 7 7 5 5 5 4 5 5 5 6 6 7 6 5 6 5 5 4 5 5 5 4 5 6 6 3 4 5 7 6 6 5 5 5 5
Wind_Direction
137 138 143 141 139 138 135 132 129 127 128 125 125 125 124 124 122 121 120 118 116 113 111 109 107 106 103 104 103 103 101 100 98 96 95 93 92 91 92 90 84 85 88 86 84 85 86 83 72 72 75 74 77 78 81 81 80 82 84 84 83 86 87 80 84 93 93 88 89 87 82 81 83 84 84 83 82 79 77 73 70 68 71 73 76
142 140 139 142 139 137 134 132 126 128 128 126 127 126 126 126 125 123 121 119 116 114 112 111 109 108 107 107 106 104 103 101 99 98 99 98 94 94 93 91 88 85 84 85 84 84 86 83 79 77 77 77 77 78 78 78 77 79 78 82 91 95 96 100 92 88 84 83 83 79 79 78 81 85 85 83 84 82 79 76 72 68 68 73 74
125 134 140 142 140 137 134 130 129 130 128 127 128 127 127 127 125 122 121 119 116 114 112 112 111 111 110 109 108 108 106 105 102 100 99 100 99 97 98 94 91 89 87 85 84 83 86 88 82 80 80 77 80 81 83 77 74 74 79 86 88 90 94 90 88 86 85 84 82 81 80 81 81 81 81 79 80 81 79 77 77 75 75 75 73
128 136 137 142 139 135 133 131 130 129 129 129 129 128 127 127 125 122 120 117 114 112 112 111 111 112 112 111 110 110 108 107 105 104 102 101 102 102 100 97 94 91 88 86 83 83 83 83 81 80 82 84 86 82 77 71 64 68 76 88 89 90 81 78 85 88 87 84 81 81 79 79 79 80 81 83 82 79 79 78 77 75 75 73 72
123 129 132 135 136 133 132 131 131 131 130 131 130 130 129 128 124 119 116 113 111 110 110 110 112 115 116 114 112 111 111 109 109 108 108 105 107 109 103 97 95 91 89 85 84 85 85 82 77 77 81 82 82 74 76 71 66 63 69 75 76 74 77 85 85 81 88 92 90 80 77 85 90 91 88 83 80 82 81 79 75 73 72 72 72
124 126 130 130 134 133 132 132 133 133 132 133 132 131 130 128 123 119 117 113 111 110 109 110 113 116 116 115 115 114 113 112 112 111 112 114 111 107 104 101 101 97 91 87 86 84 85 85 85 81 77 80 74 77 73 73 74 70 60 58 57 61 61 38 25 52 76 83 85 81 75 69 69 68 76 79 77 74 77 80 81 79 77 76 76
122 128 127 129 132 135 134 133 134 134 133 134 132 131 132 127 123 120 118 113 112 112 111 111 113 115 116 116 118 117 116 115 112 112 113 116 113 105 106 108 105 101 94 87 88 85 82 85 85 83 76 72 68 65 64 65 66 60 57 58 53 49 37 35 29 26 71 63 53 81 78 70 71 68 79 81 81 81 81 82 82 80 78 78 78
115 123 127 126 130 136 134 134 134 134 134 134 131 130 128 126 124 122 116 113 112 112 111 114 116 118 119 118 120 120 119 117 116 115 110 101 100 106 110 109 106 96 90 91 89 83 80 80 83 83 80 72 63 56 55 48 47 48 41 38 36 30 22 19 9 10 10 59 43 81 77 79 77 84 80 83 82 80 81 81 81 81 81 81 79
119 121 116 119 130 135 135 132 133 133 133 132 130 130 129 127 124 121 116 113 112 112 114 117 119 119 118 118 118 116 117 117 119 116 101 101 109 111 104 107 104 98 92 85 83 79 77 79 78 79 80 72 53 49 37 29 38 35 33 28 25 20 17 12 358 332 3 41 105 93 85 81 80 78 79 83 85 84 80 76 75 82 83 83 83
120 109 106 112 127 130 131 130 132 131 130 131 130 130 130 128 126 121 118 116 114 115 118 121 121 121 121 119 119 121 119 119 121 117 107 111 117 114 105 106 107 102 96 90 82 79 77 75 74 70 68 69 55 33 20 21 30 29 30 31 24 20 14 357 338 69 92 81 84 80 78 77 75 78 80 83 85 84 84 87 90 85 88 91 88
110 105 105 115 125 124 127 128 129 129 130 132 133 131 131 130 127 123 120 119 119 120 122 124 126 125 123 123 122 121 123 123 124 122 119 118 119 111 108 99 97 99 94 84 81 82 76 70 70 69 72 72 62 27 21 22 22 25 28 28 24 16 17 15 28 71 78 75 74 81 87 80 75 78 84 84 84 82 84 86 86 85 86 89 91
111 107 110 121 127 121 124 126 127 131 132 132 133 133 133 132 130 127 123 123 125 127 127 127 129 129 129 127 128 127 125 128 128 127 124 122 119 108 102 95 91 89 85 86 79 74 72 69 67 73 76 81 74 36 25 21 19 19 21 15 17 16 14 10 42 87 83 79 74 71 70 76 77 82 84 85 85 86 87 84 86 91 88 86 88
111 109 113 117 115 119 119 121 127 129 132 134 136 136 137 136 133 128 127 128 130 130 131 131 132 134 133 135 135 131 129 129 129 128 128 126 122 111 106 101 95 99 95 86 83 79 76 75 74 74 82 83 78 56 36 27 23 19 12 11 15 13 4 9 73 87 86 81 75 67 65 65 82 86 85 89 93 94 91 90 89 89 93 92 90
108 108 113 112 120 120 115 118 123 128 132 136 138 139 137 133 130 131 131 133 133 132 131 134 134 133 135 135 135 134 132 127 125 129 128 124 122 110 107 105 107 98 94 90 88 84 80 78 79 79 79 78 72 59 38 29 23 10 7 9 6 3 4 10 89 86 81 77 74 68 59 61 71 83 86 88 94 93 89 87 89 90 88 90 89
112 114 113 111 110 116 120 116 121 127 131 133 133 133 131 133 134 135 137 136 133 131 133 135 134 134 133 129 126 132 137 128 128 128 121 119 116 110 112 116 108 98 91 91 88 87 85 88 85 81 82 80 73 57 36 20 13 6 0 4 3 354 357 16 83 82 77 74 69 68 61 63 80 80 85 86 85 85 88 89 86 91 91 88 87
111 112 109 105 109 114 117 125 123 127 128 128 129 131 133 135 137 139 139 134 129 129 131 129 125 127 127 125 127 140 143 135 123 114 113 113 113 115 120 116 106 101 98 95 90 90 91 90 86 81 76 73 68 48 30 6 1 1 6 359 354 347 325 74 90 86 82 79 76 71 72 73 83 87 85 85 87 90 88 86 86 86 92 87 83
108 106 105 103 108 111 115 120 131 125 125 125 129 131 132 136 139 138 135 129 128 130 130 133 125 121 121 125 126 138 143 131 123 116 114 114 117 121 127 118 109 106 102 99 99 96 97 99 100 92 81 75 67 45 15 358 357 353 358 357 351 358 65 95 95 94 96 90 87 77 68 69 84 89 93 95 95 93 94 92 90 92 93 84 80
107 108 106 108 111 119 122 129 134 131 136 131 132 131 129 132 135 135 128 125 128 134 136 133 131 129 126 127 128 133 135 129 121 118 118 120 123 127 131 120 112 109 108 107 104 101 97 102 105 107 102 85 74 46 8 358 350 350 354 5 8 37 79 89 89 89 90 91 86 85 90 108 106 96 95 93 93 94 94 94 93 89 85 85 85
107 106 111 116 122 130 137 140 139 135 132 125 126 136 134 134 130 129 128 132 138 145 144 138 129 127 129 129 134 134 131 129 122 122 124 127 131 128 125 121 119 114 113 115 110 107 103 109 115 111 110 98 72 49 0 355 351 347 357 10 23 51 99 94 91 91 91 86 88 89 96 99 90 98 98 92 94 95 93 93 95 95 90 87 85
109 114 122 128 140 142 145 137 127 123 116 113 118 126 141 138 133 136 140 146 147 149 141 135 133 135 136 135 135 135 131 129 127 126 130 133 132 130 128 125 123 121 126 123 116 110 109 110 113 113 113 103 72 19 4 351 350 348 359 9 24 39 80 92 100 98 97 98 97 102 113 102 100 91 93 101 99 95 93 95 94 92 91 88 85
64 121 135 140 142 139 133 117 125 127 122 118 123 136 150 144 138 141 146 150 151 145 139 141 140 143 141 135 130 123 118 122 123 127 135 133 135 136 135 135 131 132 140 133 123 119 116 114 115 120 115 88 49 20 356 350 343 339 337 355 36 43 100 108 104 103 100 96 94 101 93 96 102 107 103 93 97 95 91 89 90 89 87 88 90
114 36 49 106 107 99 110 119 121 119 129 140 149 151 146 141 138 144 150 151 149 147 145 147 149 142 141 131 128 125 121 122 130 134 128 140 140 141 142 140 142 145 150 144 129 125 121 125 126 127 131 89 49 4 352 334 321 316 322 357 43 57 110 105 102 100 102 99 95 93 101 100 98 100 102 98 93 89 89 95 95 92 90 88 86
86 84 107 108 125 135 141 141 149 151 150 152 156 153 150 146 147 151 154 155 151 140 142 145 129 134 133 129 125 129 132 130 127 136 132 140 143 144 144 144 147 151 154 150 133 128 127 127 130 128 143 175 86 316 282 293 307 310 341 15 21 88 102 97 95 96 96 96 99 107 108 107 104 95 94 94 93 100 104 95 91 89 88 88 89
96 143 160 167 165 175 172 168 163 164 159 161 158 157 156 152 150 150 153 152 146 140 143 142 137 131 125 114 114 132 123 127 151 149 142 136 144 145 148 149 150 152 158 145 139 128 126 125 132 133 138 191 236 268 259 259 288 340 27 17 53 103 108 102 103 102 96 96 97 103 98 93 93 101 105 104 109 102 95 97 96 101 103 97 90
126 161 180 172 176 168 115 107 169 164 161 161 159 160 157 149 149 152 150 146 144 148 142 134 126 126 126 114 111 119 127 131 113 111 112 132 126 128 139 141 141 147 154 141 134 124 114 120 113 119 176 201 217 249 218 225 3 55 45 28 62 88 86 95 101 98 94 85 91 104 106 107 110 108 101 95 95 99 98 94 96 91 91 94 102
135 184 195 176 173 169 159 155 175 190 179 162 162 159 150 149 152 154 143 148 147 146 136 130 118 125 124 125 116 118 123 122 124 132 130 130 129 128 138 148 153 160 162 176 170 127 147 151 147 187 224 216 233 247 172 103 46 60 59 38 51 53 71 87 97 100 99 97 100 102 104 106 109 107 106 109 107 100 100 97 96 100 102 105 100
149 178 193 169 169 169 165 164 168 180 187 171 160 150 149 151 149 151 148 154 160 152 152 133 131 136 135 133 130 132 133 132 138 142 142 139 143 151 159 171 179 175 179 187 173 153 155 183 161 187 205 194 231 213 128 83 69 76 64 57 60 69 68 93 98 104 110 108 105 106 103 112 111 109 116 111 107 106 102 106 108 100 94 90 97
154 168 173 171 172 172 169 170 168 172 177 176 159 156 150 146 148 149 150 160 160 161 154 145 140 142 143 143 141 144 142 140 148 148 155 152 161 165 171 179 185 183 181 181 172 156 163 193 211 235 217 220 172 131 97 71 72 77 79 71 47 69 75 99 112 118 119 112 111 112 107 101 101 108 107 114 117 114 115 112 111 106 102 103 98
146 160 163 166 173 169 167 170 169 168 165 174 164 151 146 144 149 146 154 161 163 159 151 143 140 142 150 151 146 143 134 141 150 156 160 163 173 165 176 195 182 184 176 196 165 165 178 190 203 232 227 233 79 120 90 91 96 100 91 91 68 16 53 81 131 128 120 106 109 120 118 115 111 116 121 114 117 117 111 105 101 103 105 98 96
159 155 156 163 159 168 169 169 168 157 157 159 180 151 154 151 152 152 157 160 160 149 148 147 142 143 156 160 150 146 143 148 153 154 161 183 168 161 179 179 188 187 174 199 179 167 178 193 201 201 201 240 220 121 107 119 117 77 51 62 78 69 26 1 152 145 130 113 110 122 127 121 125 136 126 125 116 110 111 111 112 112 114 116 114
150 151 152 153 158 160 168 165 157 152 153 159 161 159 141 154 153 154 162 161 152 147 148 145 143 151 158 158 153 147 139 148 151 144 143 149 148 161 181 167 197 190 176 177 165 166 175 177 184 142 78 68 72 119 118 119 103 93 56 62 68 75 136 231 130 66 97 108 111 116 129 134 138 127 114 113 113 114 117 118 117 116 116 117 118
152 151 153 148 152 163 160 161 156 153 157 156 159 146 159 156 155 163 168 154 146 145 144 142 147 152 155 157 147 135 134 136 136 125 115 92 111 182 182 177 201 157 143 116 108 108 137 148 113 97 103 82 80 91 103 107 88 83 85 77 77 109 173 346 70 75 94 101 113 116 126 133 136 120 106 102 115 125 124 123 122 121 123 130 130
144 146 145 149 154 159 161 160 156 161 154 158 161 137 149 152 158 166 162 148 142 141 146 147 146 150 153 150 131 132 132 131 131 133 110 98 80 245 157 174 153 128 122 129 105 79 95 95 89 92 79 84 80 93 101 96 106 93 84 83 80 97 147 107 85 62 63 81 109 128 120 114 102 110 116 128 130 135 123 117 119 128 132 137 139
136 140 136 149 152 155 158 158 161 162 155 157 151 146 152 152 146 136 141 139 136 142 146 142 143 150 146 143 135 127 128 131 130 114 113 99 69 286 150 142 122 129 122 118 100 109 95 93 102 81 77 90 98 105 108 101 86 83 89 93 96 175 178 110 117 116 100 77 85 92 114 115 118 117 132 138 144 122 136 118 119 124 133 136 137
121 140 151 147 151 156 163 163 168 165 158 161 156 146 150 152 146 143 145 137 140 146 152 147 145 147 147 136 132 130 131 133 130 127 121 112 105 313 117 153 129 121 126 141 121 116 87 96 116 100 98 93 94 96 108 110 102 102 99 107 128 162 213 119 118 109 109 104 86 91 105 138 147 142 116 97 80 90 102 110 114 111 117 136 144
136 145 136 139 148 157 164 163 168 162 157 162 163 143 153 152 150 148 145 149 147 149 166 161 147 148 145 134 133 136 138 141 133 133 129 120 130 325 69 139 142 137 136 126 110 111 107 101 115 125 114 102 104 97 101 108 111 102 94 112 132 144 185 93 123 113 118 123 123 105 80 116 146 143 134 118 116 109 110 107 101 118 130 142 144
135 141 144 141 145 157 164 168 173 159 170 170 176 146 152 156 152 154 154 159 154 152 158 155 149 149 142 137 139 141 142 131 127 128 123 117 109 72 358 230 151 147 142 125 106 127 127 112 114 126 130 122 108 111 106 111 98 74 89 117 136 146 139 126 127 129 127 125 116 119 126 106 131 146 129 130 121 104 105 108 97 77 73 117 143
136 136 139 144 148 158 164 175 166 165 166 169 174 113 128 140 148 155 157 154 152 152 159 151 153 148 135 135 138 136 134 130 126 127 115 117 136 115 42 331 154 124 113 120 126 127 126 128 127 132 127 120 124 125 115 111 109 104 88 110 132 136 145 125 122 137 141 134 120 126 128 95 109 131 142 146 140 122 106 105 100 85 61 27 117
134 134 134 130 135 152 151 180 159 171 114 58 73 112 123 101 194 153 140 134 141 147 138 140 148 135 130 134 135 132 130 135 142 124 133 142 121 89 103 282 182 120 93 106 121 129 128 119 123 119 111 123 135 121 119 118 120 118 142 130 134 133 127 101 105 128 129 131 135 136 122 108 90 103 112 133 142 129 122 116 106 86 47 37 89
133 138 142 145 146 156 152 168 170 156 107 111 98 142 158 150 155 146 111 130 139 139 142 134 137 135 131 136 139 134 143 145 140 127 138 125 128 128 150 233 172 134 146 144 140 146 146 129 124 124 113 100 96 116 116 113 110 112 118 88 98 119 125 116 99 95 99 111 122 124 121 118 99 107 108 100 103 129 128 122 94 85 73 36 37
134 141 151 160 162 166 153 173 179 118 109 121 148 182 172 176 160 150 143 160 147 137 141 135 141 142 143 140 142 138 149 145 136 136 151 135 153 102 84 243 149 131 123 149 150 152 141 137 129 122 120 112 105 114 125 123 124 104 94 79 66 60 90 95 103 106 97 104 109 120 126 115 103 109 118 117 101 102 103 96 93 96 93 78 48
147 156 162 166 167 159 165 162 129 78 63 138 178 198 231 269 150 147 140 122 137 155 155 161 161 159 154 138 149 161 148 160 137 137 149 126 141 116 208 211 139 128 133 135 132 126 123 117 123 112 121 129 127 146 152 126 81 136 132 114 64 45 56 57 77 84 108 99 123 123 126 120 116 112 107 106 105 105 97 106 99 92 94 91 69
162 169 169 164 166 163 163 151 120 112 144 151 145 81 70 45 351 351 141 143 194 174 148 156 146 156 142 131 147 159 147 141 109 130 104 70 15 190 199 159 139 136 124 124 135 133 139 138 133 128 128 98 110 143 168 127 134 120 119 112 149 114 341 29 26 63 95 73 129 124 132 122 121 125 132 117 106 107 109 108 106 98 84 74 82
168 162 165 164 152 148 150 124 138 135 130 151 118 128 121 109 107 75 23 122 149 140 126 136 134 148 138 131 154 161 163 157 112 89 139 142 180 219 157 152 141 142 140 141 145 154 144 147 136 130 134 128 128 114 126 159 139 143 154 178 175 117 118 95 95 347 51 120 143 135 127 121 127 131 123 125 127 124 114 107 119 109 100 97 100
170 164 159 156 156 155 152 150 156 149 146 156 142 136 122 95 108 91 68 79 45 124 128 131 148 158 131 145 171 164 165 145 122 159 167 184 192 205 150 154 142 146 140 147 155 166 168 163 155 135 148 147 141 130 76 142 152 174 139 114 78 145 199 140 129 23 17 94 141 151 122 132 144 150 141 138 135 117 118 111 114 116 113 112 114
163 155 156 157 156 156 145 144 149 142 152 143 137 136 159 135 153 134 135 159 175 100 134 149 163 170 175 154 164 168 160 150 154 165 175 182 194 170 160 157 146 149 149 156 159 159 170 159 163 148 138 151 141 127 120 50 159 138 146 165 167 168 152 169 158 143 314 1 150 135 146 151 149 143 131 133 132 119 117 114 108 113 123 120 97
138 153 155 160 155 147 143 145 151 147 151 140 134 138 147 131 190 119 110 212 167 188 160 174 162 168 150 154 184 172 162 163 166 181 184 181 190 158 158 158 153 153 152 151 161 173 179 167 154 141 144 141 134 136 150 165 87 84 148 168 146 122 143 146 168 123 129 341 11 61 13 34 358 73 97 151 142 125 132 122 127 126 117 106 105
162 159 152 153 153 151 148 148 151 144 145 141 148 153 154 168 162 148 144 199 211 170 170 162 159 156 164 176 163 173 169 157 172 168 186 187 171 161 155 153 154 163 154 163 175 180 163 128 132 100 141 150 150 146 157 164 157 205 179 126 74 102 153 107 144 156 140 149 141 78 33 1 18 12 330 233 146 144 126 130 133 130 120 112 109
172 161 154 147 144 151 149 142 135 130 143 155 156 166 170 168 165 154 151 189 185 163 152 153 156 168 160 177 170 164 153 159 190 178 180 156 155 162 152 152 160 164 166 170 172 162 141 140 116 119 189 154 146 149 147 175 163 167 145 159 123 140 157 117 146 133 141 136 126 149 146 326 18 268 244 229 174 146 149 152 147 138 126 121 111
107 68 143 136 135 146 146 138 133 144 161 170 169 173 175 169 157 164 160 165 158 151 150 157 163 167 166 178 177 152 158 166 176 166 150 154 153 159 132 133 162 161 166 178 176 152 139 149 156 154 179 146 152 140 158 167 164 163 165 162 152 131 96 111 136 115 79 129 153 158 166 167 160 218 206 225 175 160 152 151 146 140 129 117 111
64 17 114 122 119 132 134 151 156 159 170 175 172 176 175 174 169 162 152 155 157 157 154 156 164 172 177 184 172 166 161 168 160 152 147 152 153 158 151 168 187 173 170 182 164 157 147 134 147 165 158 143 147 137 137 150 146 147 165 165 169 167 169 168 173 157 153 141 119 136 159 174 160 155 214 204 165 155 151 156 148 129 123 121 119